This is the latest recevied weather packets stored in our database for station/object K7KAZ. If no packets are shown the sender has not sent any weather packets the latest 10 day(s).
| Time | Temp. | Humidity | Pressure | Rain* | Wind** | Luminosity | Snow |
|---|---|---|---|---|---|---|---|
| 1778019654 | 23.89° C | 29% | 1012.5 hPa | 0 mm | - | 553 W/m² | - |
| 1778019352 | 23.33° C | 31% | 1012.2 hPa | 0 mm | - | 184 W/m² | - |
| 1778019048 | 23.33° C | 31% | 1012.6 hPa | 0 mm | - | 165 W/m² | - |
| 1778018745 | 23.89° C | 30% | 1012.7 hPa | 0 mm | - | 484 W/m² | - |
| 1778018443 | 24.44° C | 30% | 1012.8 hPa | 0 mm | - | 497 W/m² | - |
| 1778018141 | 23.89° C | 30% | 1012.5 hPa | 0 mm | - | 608 W/m² | - |
| 1778017838 | 23.89° C | 30% | 1012.7 hPa | 0 mm | - | 606 W/m² | - |
| 1778017536 | 22.78° C | 31% | 1012.9 hPa | 0 mm | - | 603 W/m² | - |
| 1778017233 | 24.44° C | 29% | 1012.8 hPa | 0 mm | - | 746 W/m² | - |
| 1778016931 | 23.33° C | 31% | 1012.8 hPa | 0 mm | - | 758 W/m² | - |
| 1778016627 | 23.89° C | 30% | 1012.6 hPa | 0 mm | - | 165 W/m² | - |
| 1778016323 | 23.33° C | 30% | 1013 hPa | 0 mm | - | 667 W/m² | - |
| 1778016020 | 23.89° C | 29% | 1013 hPa | 0 mm | - | 789 W/m² | - |
| 1778015718 | 23.89° C | 30% | 1013.2 hPa | 0 mm | - | 318 W/m² | - |
| 1778015414 | 23.33° C | 31% | 1013.2 hPa | 0 mm | - | 782 W/m² | - |
| 1778015111 | 23.33° C | 30% | 1013.3 hPa | 0 mm | - | 701 W/m² | - |
| 1778014808 | 23.33° C | 32% | 1013.4 hPa | 0 mm | - | 691 W/m² | - |
| 1778014506 | 22.78° C | 32% | 1013 hPa | 0 mm | - | 793 W/m² | - |
| 1778014203 | 23.33° C | 31% | 1013.4 hPa | 0 mm | - | 721 W/m² | - |
| 1778013901 | 23.33° C | 31% | 1013.5 hPa | 0 mm | - | 662 W/m² | - |
| 1778013598 | 23.89° C | 32% | 1013.5 hPa | 0 mm | - | 790 W/m² | - |
| 1778013294 | 22.78° C | 33% | 1013.6 hPa | 0 mm | - | 601 W/m² | - |
| 1778012990 | 22.78° C | 33% | 1013.5 hPa | 0 mm | - | 783 W/m² | - |
| 1778012687 | 22.78° C | 34% | 1013.4 hPa | 0 mm | - | 779 W/m² | - |
| 1778012383 | 22.78° C | 34% | 1013.5 hPa | 0 mm | - | 804 W/m² | - |
* Rain latest hour (hover to see other rain measurements)
** Current wind speed in m/s (hover to see current wind gust speed)